GW0774 Weather Reports


time (UTC)temp
C
wind
direction
speed
KPH
gust
KPH
rain 1hr
cm
rain 24hr
cm
rain mn
cm
humidity
%
barometer
mb
20260905050539 12 255 25.7 40.2 0.00 0.05 0.05 81 1012.4
20260905050059 13 317 19.3 32.2 0.00 0.05 0.05 80 1012.4
20260905045538 13 253 19.3 38.6 0.00 0.05 0.05 79 1012.4
20260905045038 13 277 17.7 38.6 0.00 0.05 0.05 78 1012.4
20260905044556 13 287 14.5 38.6 0.00 0.05 0.05 78 1012.5
20260905044039 13 270 20.9 43.5 0.00 0.05 0.05 77 1012.4
20260905043539 13 262 22.5 46.7 0.00 0.05 0.05 78 1012.3
20260905043049 13 306 20.9 51.5 0.00 0.05 0.05 78 1012.2
20260905042539 13 273 27.4 51.5 0.00 0.05 0.05 77 1012.3
20260905042039 13 277 25.7 43.5 0.00 0.05 0.05 78 1012.3
20260905041603 13 313 22.5 40.2 0.00 0.05 0.05 79 1012.4
20260905041039 14 318 19.3 46.7 0.00 0.05 0.05 80 1012.7
20260905040540 14 289 19.3 46.7 0.00 0.05 0.05 81 1013.0
20260905040057 13 307 20.9 46.7 0.00 0.05 0.05 81 1012.9
20260905035539 13 295 19.3 41.8 0.00 0.05 0.05 82 1013.0
20260905035039 13 263 20.9 41.8 0.00 0.05 0.05 82 1013.0
20260905034602 13 296 17.7 32.2 0.00 0.05 0.05 82 1012.9
20260905034043 13 290 16.1 32.2 0.00 0.05 0.05 83 1012.9
20260905033620 13 290 17.7 38.6 0.00 0.05 0.05 82 1012.9
20260905033047 13 271 22.5 38.6 0.00 0.05 0.05 82 1012.9
20260905032541 13 263 19.3 38.6 0.00 0.05 0.05 83 1013.0
20260905032038 13 288 19.3 38.6 0.00 0.05 0.05 82 1013.1
20260905031559 13 270 16.1 35.4 0.03 0.05 0.05 83 1013.1
20260905031039 13 250 20.9 33.8 0.03 0.05 0.05 84 1013.2
20260905030538 13 258 17.7 32.2 0.03 0.05 0.05 86 1013.2
20260905030054 13 300 16.1 30.6 0.03 0.05 0.05 88 1013.3
20260905025538 12 247 12.9 25.7 0.05 0.05 0.05 87 1013.4
20260905025040 12 245 16.1 25.7 0.05 0.05 0.05 88 1013.5
20260905024600 12 244 14.5 27.4 0.05 0.05 0.05 89 1013.6
20260905024039 12 236 17.7 27.4 0.05 0.05 0.05 90 1013.7
20260905023539 12 234 17.7 29.0 0.05 0.05 0.05 91 1013.8
20260905023104 12 250 14.5 29.0 0.05 0.05 0.05 90 1013.8
20260905022538 12 260 19.3 43.5 0.05 0.05 0.05 89 1013.7
20260905022039 13 252 22.5 51.5 0.05 0.05 0.05 85 1013.7
20260905021557 13 304 24.1 51.5 0.00 0.00 0.00 81 1013.5
20260905021038 13 251 24.1 49.9 0.00 0.00 0.00 81 1013.5
20260905020542 13 273 19.3 46.7 0.00 0.00 0.00 86 1013.3
20260905020055 13 261 22.5 46.7 0.00 0.00 0.00 83 1013.6
20260905015539 13 267 24.1 46.7 0.00 0.00 0.00 80 1013.8
20260905015042 14 243 16.1 46.7 0.00 0.00 0.00 78 1013.8
20260905014554 14 252 22.5 46.7 0.00 0.00 0.00 76 1013.7
20260905014039 14 239 19.3 43.5 0.00 0.00 0.00 79 1013.8
20260905013539 15 273 17.7 43.5 0.00 0.00 0.00 78 1013.8
20260905013050 15 271 19.3 38.6 0.00 0.00 0.00 79 1013.9
20260905012540 14 281 24.1 38.6 0.00 0.00 0.00 78 1014.0
20260905012041 15 231 17.7 32.2 0.00 0.00 0.00 78 1013.9
20260905011549 14 265 19.3 38.6 0.00 0.00 0.00 79 1014.0
20260905011039 15 298 19.3 38.6 0.00 0.00 0.00 76 1014.1
20260905010539 15 292 19.3 35.4 0.00 0.00 0.00 78 1014.1
20260905010057 15 240 19.3 43.5 0.00 0.00 0.00 77 1014.0
20260905005539 15 279 19.3 43.5 0.00 0.00 0.00 78 1014.1
20260905005039 15 285 22.5 43.5 0.00 0.00 0.00 76 1014.2
20260905004557 15 319 19.3 35.4 0.00 0.00 0.00 78 1014.5
20260905004039 14 317 19.3 35.4 0.00 0.00 0.00 77 1014.7
20260905003539 14 317 19.3 35.4 0.00 0.00 0.00 76 1014.7
20260905003051 14 292 20.9 35.4 0.00 0.00 0.00 77 1014.7
20260905002539 14 259 17.7 38.6 0.00 0.00 0.00 78 1014.7
20260905002039 14 314 16.1 38.6 0.00 0.00 0.00 79 1014.7
20260905001606 13 246 12.9 32.2 0.00 0.00 0.00 81 1015.0
20260905001038 13 291 14.5 32.2 0.00 0.00 0.00 79 1015.0
20260905000539 13 236 16.1 32.2 0.00 0.00 0.00 79 1015.2
20260905000112 13 235 16.1 27.4 0.00 0.00 0.00 79 1015.3
20260904235541 13 294 12.9 25.7 0.00 0.00 0.00 80 1015.4
20260904235038 13 271 16.1 27.4 0.00 0.00 0.00 78 1015.3
20260904234557 13 272 17.7 30.6 0.00 0.00 0.00 76 1015.3
20260904234039 13 257 16.1 33.8 0.00 0.00 0.00 79 1015.3
20260904233539 13 254 17.7 33.8 0.00 0.00 0.00 77 1015.3
20260904233109 13 265 19.3 33.8 0.00 0.00 0.00 75 1015.3
20260904232538 13 263 17.7 30.6 0.00 0.00 0.00 78 1015.2
20260904232040 13 274 14.5 25.7 0.00 0.00 0.00 78 1015.3
20260904231555 13 255 12.9 24.1 0.00 0.00 0.00 79 1015.3
20260904231039 13 232 14.5 25.7 0.00 0.00 0.00 78 1015.3
20260904230539 13 252 14.5 25.7 0.00 0.00 0.00 78 1015.3
20260904230105 13 267 12.9 29.0 0.00 0.00 0.00 80 1015.3
20260904225539 13 244 12.9 29.0 0.00 0.08 0.00 79 1015.4
20260904225038 14 270 12.9 29.0 0.00 0.08 0.00 79 1015.2
20260904224601 14 243 14.5 29.0 0.00 0.08 0.00 78 1015.3
20260904224039 14 250 17.7 29.0 0.00 0.08 0.00 79 1015.4
20260904223539 13 273 17.7 29.0 0.00 0.08 0.00 79 1015.3
20260904223114 13 34 14.5 29.0 0.00 0.08 0.00 79 1015.2
20260904222539 13 252 16.1 29.0 0.00 0.08 0.00 77 1015.1
20260904222039 14 284 16.1 27.4 0.00 0.08 0.00 79 1015.1
20260904221548 13 305 16.1 27.4 0.00 0.08 0.00 78 1015.1
20260904221039 14 247 11.3 27.4 0.00 0.08 0.00 79 1015.1
20260904220539 13 244 14.5 30.6 0.00 0.08 0.00 77 1014.9
20260904220058 13 276 19.3 30.6 0.00 0.08 0.00 75 1015.0
20260904215539 13 250 16.1 30.6 0.00 0.08 0.00 75 1015.0
20260904215041 13 237 19.3 30.6 0.00 0.08 0.00 76 1014.8
20260904214555 13 293 17.7 30.6 0.00 0.08 0.00 75 1014.8
20260904214039 13 285 19.3 32.2 0.00 0.08 0.00 75 1014.7
20260904213539 13 268 19.3 32.2 0.00 0.08 0.00 75 1014.7
20260904213101 13 275 19.3 27.4 0.00 0.08 0.00 77 1014.7
20260904212540 13 296 19.3 30.6 0.00 0.08 0.00 77 1014.6
20260904212039 13 275 14.5 30.6 0.00 0.08 0.00 77 1014.6
20260904211550 13 286 14.5 27.4 0.00 0.08 0.00 78 1014.9
20260904211037 13 298 12.9 25.7 0.00 0.08 0.00 79 1014.9
20260904210539 13 306 12.9 22.5 0.00 0.08 0.00 79 1014.9
20260904210105 13 273 8.0 22.5 0.00 0.08 0.00 79 1015.0
20260904205538 13 304 12.9 22.5 0.00 0.10 0.00 80 1015.0
20260904205038 13 271 12.9 19.3 0.00 0.10 0.00 79 1015.0
20260904204601 13 281 11.3 17.7 0.00 0.10 0.00 81 1015.0
20260904204043 13 293 11.3 25.7 0.00 0.10 0.00 80 1014.9
20260904203539 12 254 9.7 25.7 0.00 0.10 0.00 82 1014.9
20260904203101 12 293 12.9 25.7 0.00 0.10 0.00 83 1014.9
20260904202536 12 252 1.6 4.8 0.00 0.10 0.00 84 1014.8
20260904202038 12 36 0.0 6.4 0.00 0.10 0.00 83 1014.8
20260904201548 12 178 0.0 11.3 0.00 0.10 0.00 83 1014.7
20260904201036 12 44 1.6 11.3 0.00 0.10 0.00 83 1014.6
20260904200538 12 321 4.8 11.3 0.00 0.10 0.00 83 1014.4
20260904200057 12 273 4.8 11.3 0.00 0.10 0.00 84 1014.5
20260904195537 12 267 1.6 6.4 0.00 0.10 0.00 85 1014.5
20260904195039 11 265 0.0 14.5 0.00 0.10 0.00 85 1014.4
20260904194555 11 271 4.8 16.1 0.00 0.10 0.00 85 1014.3
20260904194039 11 285 9.7 20.9 0.00 0.10 0.00 85 1014.3
20260904193541 11 284 12.9 24.1 0.00 0.10 0.00 85 1014.2
20260904193103 11 296 14.5 24.1 0.00 0.10 0.00 85 1014.1
20260904192536 10 313 16.1 22.5 0.00 0.10 0.00 85 1013.9
20260904192041 10 278 11.3 20.9 0.00 0.10 0.00 85 1013.8
20260904191600 10 276 14.5 20.9 0.00 0.10 0.00 85 1013.7
20260904191037 10 311 12.9 20.9 0.00 0.10 0.00 85 1013.7
20260904190540 10 292 11.3 16.1 0.00 0.10 0.00 85 1013.7
20260904190101 10 279 9.7 16.1 0.00 0.10 0.00 85 1013.8
20260904185540 10 261 8.0 16.1 0.00 0.10 0.00 85 1013.8
20260904185041 10 294 6.4 16.1 0.00 0.10 0.00 85 1013.9
20260904184554 10 269 6.4 16.1 0.00 0.10 0.00 85 1013.8
20260904184039 10 290 8.0 16.1 0.00 0.10 0.00 86 1013.8
20260904183539 10 269 6.4 14.5 0.00 0.10 0.00 86 1013.7
20260904183101 10 264 6.4 14.5 0.00 0.10 0.00 86 1013.7
20260904182538 10 267 6.4 14.5 0.00 0.10 0.00 86 1013.6
20260904182039 10 266 4.8 11.3 0.00 0.10 0.00 85 1013.5
20260904181557 10 275 4.8 16.1 0.00 0.10 0.00 85 1013.5
20260904181039 10 271 4.8 16.1 0.00 0.10 0.00 85 1013.6
20260904180539 10 290 8.0 16.1 0.00 0.10 0.00 85 1013.3
20260904180103 10 271 4.8 17.7 0.00 0.10 0.00 85 1013.2
20260904175539 10 243 6.4 19.3 0.00 0.10 0.00 85 1013.1
20260904175040 10 269 8.0 19.3 0.00 0.10 0.00 85 1013.0
20260904174557 10 277 6.4 17.7 0.00 0.10 0.00 84 1013.0
20260904174040 10 264 8.0 17.7 0.00 0.10 0.00 84 1012.9
20260904173539 11 277 4.8 14.5 0.00 0.10 0.00 84 1012.9
20260904173056 11 302 6.4 14.5 0.00 0.10 0.00 84 1012.9
20260904172540 11 311 6.4 17.7 0.00 0.10 0.00 84 1012.8
20260904172039 11 268 9.7 19.3 0.00 0.10 0.00 84 1012.8
20260904171558 11 300 12.9 19.3 0.00 0.10 0.00 84 1012.6
20260904171040 11 290 9.7 19.3 0.00 0.10 0.00 84 1012.6
20260904170538 11 253 6.4 14.5 0.00 0.10 0.00 84 1012.6
20260904170059 11 263 6.4 17.7 0.00 0.10 0.00 84 1012.6
20260904165541 11 261 8.0 17.7 0.00 0.10 0.00 84 1012.6
20260904165039 11 261 6.4 17.7 0.00 0.10 0.00 84 1012.5
20260904164556 11 278 9.7 24.1 0.00 0.10 0.00 83 1012.5
20260904164039 11 255 11.3 24.1 0.00 0.10 0.00 83 1012.4
20260904163539 11 267 6.4 19.3 0.00 0.10 0.00 83 1012.3
20260904163052 11 302 8.0 29.0 0.00 0.10 0.00 82 1012.1
20260904162539 11 261 11.3 29.0 0.00 0.10 0.00 82 1012.1
20260904162042 11 237 9.7 22.5 0.00 0.10 0.00 82 1012.0
20260904161610 11 239 9.7 19.3 0.00 0.10 0.00 82 1011.9
20260904161039 11 248 6.4 22.5 0.00 0.10 0.00 82 1011.9
20260904160539 11 240 8.0 22.5 0.00 0.10 0.00 82 1011.8
20260904155539 11 261 12.9 25.7 0.00 0.10 0.00 81 1011.6
20260904155036 11 237 11.3 29.0 0.00 0.10 0.00 81 1011.5
20260904154555 11 294 12.9 29.0 0.00 0.10 0.00 81 1011.5
20260904154039 11 277 16.1 33.8 0.00 0.10 0.00 81 1011.4
20260904153539 11 244 11.3 33.8 0.00 0.10 0.00 81 1011.2
20260904153101 11 246 12.9 29.0 0.00 0.10 0.00 82 1011.3
20260904152538 11 263 11.3 22.5 0.00 0.10 0.00 83 1011.2
20260904152038 11 286 9.7 22.5 0.00 0.10 0.00 82 1011.2
20260904151601 11 320 11.3 22.5 0.00 0.10 0.00 82 1011.3
20260904151039 11 244 11.3 27.4 0.00 0.10 0.00 81 1011.4
20260904150539 11 280 14.5 27.4 0.00 0.10 0.00 81 1011.3
20260904150104 11 278 12.9 27.4 0.00 0.10 0.00 81 1011.4
20260904145539 11 286 11.3 27.4 0.00 0.10 0.00 81 1011.3
20260904145039 11 270 16.1 33.8 0.00 0.10 0.00 81 1011.1
20260904144613 11 283 14.5 33.8 0.00 0.10 0.00 80 1011.0
20260904144040 11 286 16.1 33.8 0.00 0.10 0.00 80 1011.4
20260904143539 11 301 14.5 25.7 0.00 0.10 0.00 80 1011.3
20260904143057 11 249 14.5 32.2 0.00 0.10 0.00 79 1011.3
20260904142539 11 246 16.1 32.2 0.00 0.10 0.00 79 1011.1
20260904142040 11 243 14.5 30.6 0.00 0.10 0.00 79 1011.1
20260904141606 11 242 14.5 30.6 0.00 0.10 0.00 80 1011.1
20260904141039 11 253 14.5 29.0 0.00 0.10 0.00 80 1011.0
20260904140538 11 259 16.1 29.0 0.00 0.10 0.00 81 1011.1
20260904140056 11 244 14.5 27.4 0.00 0.10 0.00 81 1011.0
20260904135539 11 265 11.3 32.2 0.00 0.10 0.00 80 1011.1
20260904135038 11 292 14.5 33.8 0.00 0.10 0.00 79 1011.2
20260904134552 12 258 17.7 33.8 0.00 0.10 0.00 78 1011.0
20260904134039 11 245 12.9 27.4 0.00 0.10 0.00 79 1011.1
20260904133541 12 257 16.1 32.2 0.00 0.10 0.00 78 1011.2
20260904133057 12 247 19.3 32.2 0.00 0.10 0.00 78 1011.1
20260904132539 12 283 19.3 25.7 0.00 0.10 0.00 78 1011.1
20260904132039 12 243 17.7 25.7 0.00 0.10 0.00 79 1011.3
20260904131606 11 257 14.5 24.1 0.00 0.10 0.00 80 1011.2
20260904131039 11 232 11.3 25.7 0.00 0.10 0.00 79 1011.1
20260904130539 12 259 12.9 30.6 0.00 0.10 0.00 78 1011.1
20260904130057 12 244 16.1 30.6 0.00 0.10 0.00 77 1011.1
20260904125539 11 259 11.3 30.6 0.00 0.10 0.00 78 1011.1
20260904125043 11 259 14.5 30.6 0.00 0.10 0.00 77 1011.1
20260904124603 11 249 9.7 27.4 0.00 0.10 0.00 78 1011.1
20260904124039 11 254 11.3 27.4 0.00 0.10 0.00 77 1011.1
20260904123538 11 259 11.3 25.7 0.00 0.10 0.00 77 1011.0
20260904123054 11 272 12.9 30.6 0.00 0.10 0.00 77 1010.9
20260904122539 12 296 12.9 30.6 0.00 0.10 0.00 77 1010.8
20260904122045 11 246 12.9 30.6 0.00 0.10 0.00 78 1010.6
20260904121559 12 247 12.9 33.8 0.00 0.10 0.00 77 1010.6
20260904121038 12 240 17.7 33.8 0.00 0.10 0.00 76 1010.6
20260904120538 12 259 12.9 32.2 0.00 0.10 0.00 76 1010.6
20260904120106 12 239 17.7 37.0 0.00 0.10 0.00 76 1010.6
20260904115538 12 277 14.5 37.0 0.00 0.10 0.10 77 1010.6
20260904115039 12 248 20.9 37.0 0.00 0.10 0.10 77 1010.4
20260904114557 11 279 14.5 25.7 0.00 0.10 0.10 79 1010.3
20260904114040 11 311 12.9 29.0 0.00 0.10 0.10 80 1010.3
20260904113541 11 250 12.9 32.2 0.00 0.10 0.10 80 1010.2
20260904113056 12 298 16.1 32.2 0.00 0.10 0.10 80 1010.2
20260904112540 11 315 17.7 32.2 0.00 0.10 0.10 80 1010.1
20260904112039 11 237 14.5 27.4 0.00 0.10 0.10 80 1009.9
20260904111600 11 284 16.1 30.6 0.00 0.10 0.10 79 1009.9
20260904111039 11 243 17.7 30.6 0.00 0.10 0.10 78 1010.0
20260904110539 11 252 16.1 30.6 0.00 0.10 0.10 77 1010.0
20260904110105 11 269 14.5 37.0 0.00 0.10 0.10 77 1009.9
20260904105539 12 257 17.7 37.0 0.00 0.10 0.10 76 1009.8
20260904105039 11 257 19.3 37.0 0.00 0.10 0.10 77 1009.9
20260904104557 11 252 16.1 27.4 0.00 0.10 0.10 79 1009.9
20260904104039 11 252 16.1 25.7 0.00 0.10 0.10 80 1009.9
20260904103541 11 254 14.5 32.2 0.00 0.10 0.10 80 1009.9
20260904103054 11 316 17.7 33.8 0.00 0.10 0.10 80 1009.9
20260904102539 11 296 14.5 33.8 0.00 0.10 0.10 80 1009.7
20260904102038 11 265 17.7 33.8 0.00 0.10 0.10 80 1009.7
20260904101600 11 249 17.7 33.8 0.00 0.10 0.10 79 1009.6
20260904101038 11 267 16.1 35.4 0.00 0.10 0.10 78 1009.3
20260904100539 11 284 16.1 35.4 0.00 0.10 0.10 77 1009.4
20260904100120 11 230 20.9 37.0 0.00 0.10 0.10 76 1009.3
20260904095541 11 248 17.7 37.0 0.00 0.10 0.10 77 1009.3
20260904095039 11 268 17.7 33.8 0.00 0.10 0.10 77 1009.3
20260904094557 11 254 14.5 35.4 0.00 0.10 0.10 78 1009.2
20260904094039 11 260 16.1 35.4 0.00 0.10 0.10 78 1009.3
20260904093539 11 266 16.1 35.4 0.00 0.10 0.10 78 1009.2
20260904093055 12 261 14.5 40.2 0.00 0.10 0.10 79 1009.0
20260904092539 12 271 17.7 40.2 0.00 0.10 0.10 79 1008.9
20260904092041 12 270 17.7 32.2 0.00 0.10 0.10 80 1008.8
20260904091553 12 256 17.7 33.8 0.00 0.10 0.10 80 1008.8
20260904091042 12 300 14.5 33.8 0.00 0.10 0.10 80 1009.0
20260904090538 12 250 17.7 35.4 0.00 0.10 0.10 81 1009.0
20260904090058 12 288 17.7 35.4 0.00 0.10 0.10 81 1009.1
20260904085538 12 293 16.1 38.6 0.00 0.10 0.10 82 1008.9
20260904085040 12 231 17.7 41.8 0.00 0.10 0.10 81 1008.5
20260904084557 12 287 20.9 41.8 0.00 0.10 0.10 81 1008.3
20260904084040 12 252 20.9 35.4 0.00 0.10 0.10 80 1008.2
20260904083539 12 260 20.9 35.4 0.00 0.10 0.10 80 1008.2
20260904083106 12 273 19.3 35.4 0.00 0.10 0.10 80 1008.4
20260904082539 12 237 20.9 35.4 0.00 0.10 0.10 80 1008.3
20260904082039 12 238 19.3 35.4 0.00 0.10 0.10 80 1008.2
20260904081600 12 264 19.3 37.0 0.00 0.10 0.10 79 1008.3
20260904081039 12 242 20.9 38.6 0.00 0.10 0.10 79 1008.3
20260904080538 12 255 19.3 40.2 0.00 0.10 0.10 79 1008.1
20260904080056 12 250 22.5 40.2 0.00 0.10 0.10 78 1008.0
20260904075539 12 259 24.1 41.8 0.00 0.10 0.10 77 1007.8
20260904075038 12 263 25.7 41.8 0.00 0.10 0.10 76 1007.7
20260904074610 12 272 22.5 41.8 0.00 0.10 0.10 78 1007.6
20260904074039 12 267 20.9 40.2 0.00 0.10 0.10 80 1007.5
20260904073540 12 263 22.5 40.2 0.00 0.10 0.10 82 1007.6
20260904073100 12 236 24.1 45.1 0.00 0.10 0.10 82 1007.5
20260904072539 12 252 25.7 45.1 0.00 0.10 0.10 82 1007.6
20260904072038 12 267 24.1 41.8 0.00 0.10 0.10 83 1007.6
20260904071625 12 243 24.1 41.8 0.00 0.10 0.10 82 1007.5
20260904071039 12 249 20.9 37.0 0.00 0.10 0.10 81 1007.4
20260904070539 12 254 20.9 45.1 0.00 0.10 0.10 80 1007.4
20260904070113 12 281 22.5 46.7 0.00 0.10 0.10 80 1007.4
20260904065539 13 241 25.7 46.7 0.00 0.10 0.10 79 1007.2
20260904065039 13 253 20.9 43.5 0.00 0.10 0.10 79 1007.0
20260904064609 13 252 24.1 43.5 0.00 0.10 0.10 79 1006.8
20260904064039 13 259 24.1 41.8 0.00 0.10 0.10 79 1006.6
20260904063539 13 298 24.1 40.2 0.00 0.10 0.10 79 1006.5
20260904063100 12 244 19.3 51.5 0.00 0.10 0.10 80 1006.6
20260904062541 12 247 22.5 51.5 0.00 0.10 0.10 79 1006.6
20260904062038 12 249 17.7 41.8 0.00 0.10 0.10 80 1006.5
20260904061558 12 262 24.1 41.8 0.00 0.10 0.10 79 1006.7
20260904061039 12 261 17.7 33.8 0.00 0.10 0.10 80 1006.7
20260904060540 12 256 16.1 38.6 0.00 0.10 0.10 80 1006.6
20260904060100 12 239 22.5 38.6 0.00 0.10 0.10 79 1006.7
20260904055539 12 225 20.9 33.8 0.00 0.10 0.10 79 1006.6
20260904055039 12 286 17.7 33.8 0.00 0.10 0.10 79 1006.6
20260904054554 12 324 16.1 37.0 0.00 0.10 0.10 79 1006.6
20260904054040 12 228 17.7 37.0 0.00 0.10 0.10 79 1006.6
20260904053539 12 268 17.7 38.6 0.00 0.10 0.10 79 1006.5
20260904053108 13 260 19.3 38.6 0.00 0.10 0.10 79 1006.2
20260904052540 13 259 19.3 41.8 0.00 0.10 0.10 79 1006.1
20260904052040 13 246 17.7 43.5 0.00 0.10 0.10 79 1006.1
20260904051559 13 307 17.7 43.5 0.00 0.10 0.10 79 1006.1
20260904051039 13 248 17.7 35.4 0.00 0.10 0.10 80 1006.4